This is the latest recevied weather packets stored in our database for station/object NC4J. If no packets are shown the sender has not sent any weather packets the latest 10 day(s).
| Time | Temp. | Humidity | Pressure | Rain* | Wind** | Luminosity | Snow |
|---|---|---|---|---|---|---|---|
| 1777991771 | 18.33° C | 47% | 1017.3 hPa | 0 mm | - | 66 W/m² | - |
| 1777991468 | 18.33° C | 48% | 1017.4 hPa | 0 mm | - | 70 W/m² | - |
| 1777991165 | 17.78° C | 54% | 1017.3 hPa | 0 mm | - | 71 W/m² | - |
| 1777990863 | 17.78° C | 55% | 1017.4 hPa | 0 mm | - | 80 W/m² | - |
| 1777990560 | 17.22° C | 55% | 1017.3 hPa | 0 mm | - | 55 W/m² | - |
| 1777989953 | 16.11° C | 56% | 1017.3 hPa | 0 mm | - | 63 W/m² | - |
| 1777989650 | 16.11° C | 56% | 1017.4 hPa | 0 mm | - | 45 W/m² | - |
| 1777989346 | 15.56° C | 57% | 1017.6 hPa | 0 mm | - | 55 W/m² | - |
| 1777989043 | 15.56° C | 58% | 1017.4 hPa | 0 mm | - | 70 W/m² | - |
| 1777988738 | 15° C | 61% | 1017.3 hPa | 0 mm | - | 36 W/m² | - |
| 1777988436 | 15° C | 62% | 1017.3 hPa | 0 mm | - | 30 W/m² | - |
| 1777988133 | 14.44° C | 63% | 1017.3 hPa | 0 mm | - | 30 W/m² | - |
| 1777987829 | 14.44° C | 67% | 1017.3 hPa | 0 mm | - | 61 W/m² | - |
| 1777987526 | 13.89° C | 63% | 1017.1 hPa | 0 mm | - | 27 W/m² | - |
| 1777987223 | 13.89° C | 62% | 1017.2 hPa | 0 mm | - | 27 W/m² | - |
| 1777986919 | 13.33° C | 63% | 1017.1 hPa | 0 mm | - | 24 W/m² | - |
| 1777986618 | 12.78° C | 66% | 1017.1 hPa | 0 mm | - | 33 W/m² | - |
| 1777986315 | 12.78° C | 69% | 1017.2 hPa | 0 mm | - | 33 W/m² | - |
| 1777986014 | 12.22° C | 70% | 1017.2 hPa | 0 mm | - | 25 W/m² | - |
| 1777985710 | 11.67° C | 75% | 1017.4 hPa | 0 mm | - | 24 W/m² | - |
| 1777985407 | 11.67° C | 77% | 1017.4 hPa | 0 mm | - | 24 W/m² | - |
| 1777985103 | 11.67° C | 77% | 1017.4 hPa | 0 mm | - | 24 W/m² | - |
| 1777984799 | 11.11° C | 78% | 1017.3 hPa | 0 mm | - | 45 W/m² | - |
| 1777984496 | 10.56° C | 81% | 1017.3 hPa | 0 mm | - | 78 W/m² | - |
| 1777984192 | 10.56° C | 80% | 1017.3 hPa | 0 mm | - | 87 W/m² | - |
* Rain latest hour (hover to see other rain measurements)
** Current wind speed in m/s (hover to see current wind gust speed)